Time,TemperatureF,DewpointF,PressureIn,WindDirection,WindDirectionDegrees,WindSpeedMPH,WindSpeedGustMPH,Humidity,HourlyPrecipIn,Conditions,Clouds,dailyrainin,SoftwareType,DateUTC
2013-03-25 00:00:00,32.2,28.8,29.64,SW,233,0.0,0.0,87,0.00,,,0.00,VWS V14.00,2013-03-25 04:00:00,
2013-03-25 00:05:00,32.2,28.8,29.64,SW,233,0.0,0.0,87,0.00,,,0.00,VWS V14.00,2013-03-25 04:05:00,
2013-03-25 00:10:00,32.2,28.8,29.64,SW,233,0.0,0.0,87,0.00,,,0.00,VWS V14.00,2013-03-25 04:10:00,
2013-03-25 00:15:00,32.2,28.8,29.64,SW,233,0.0,0.0,87,0.00,,,0.00,VWS V14.00,2013-03-25 04:15:00,
2013-03-25 00:20:00,32.2,28.8,29.64,SW,233,0.0,0.0,87,0.00,,,0.00,VWS V14.00,2013-03-25 04:20:00,
2013-03-25 00:25:00,32.4,28.9,29.64,SW,233,0.0,0.0,87,0.00,,,0.00,VWS V14.00,2013-03-25 04:25:00,
2013-03-25 00:30:00,32.5,29.1,29.64,SW,233,0.0,0.0,87,0.00,,,0.00,VWS V14.00,2013-03-25 04:30:00,
2013-03-25 00:35:00,32.5,28.8,29.64,SW,233,0.0,0.0,86,0.00,,,0.00,VWS V14.00,2013-03-25 04:35:00,
2013-03-25 00:40:00,32.5,28.8,29.64,SW,233,0.0,0.0,86,0.00,,,0.00,VWS V14.00,2013-03-25 04:40:00,
2013-03-25 00:45:00,32.5,28.8,29.64,SW,233,0.0,0.0,86,0.00,,,0.00,VWS V14.00,2013-03-25 04:45:00,
2013-03-25 00:50:00,32.4,28.6,29.64,SW,233,0.0,0.0,86,0.00,,,0.00,VWS V14.00,2013-03-25 04:50:00,
2013-03-25 00:55:00,32.4,28.6,29.64,SW,233,0.0,0.0,86,0.00,,,0.00,VWS V14.00,2013-03-25 04:55:00,
2013-03-25 01:00:00,32.4,28.6,29.64,SW,233,0.0,0.0,86,0.00,,,0.00,VWS V14.00,2013-03-25 05:00:00,
2013-03-25 01:05:00,32.4,28.6,29.61,SW,233,0.0,0.0,86,0.00,,,0.00,VWS V14.00,2013-03-25 05:05:00,
2013-03-25 01:10:00,32.5,28.8,29.61,SW,233,0.0,0.0,86,0.00,,,0.00,VWS V14.00,2013-03-25 05:10:00,
2013-03-25 01:15:00,32.5,28.8,29.61,SW,233,0.0,0.0,86,0.00,,,0.00,VWS V14.00,2013-03-25 05:15:00,
2013-03-25 01:20:00,32.5,28.8,29.61,SW,233,0.0,0.0,86,0.00,,,0.00,VWS V14.00,2013-03-25 05:20:00,
2013-03-25 01:26:00,32.5,28.8,29.61,SW,233,0.0,0.0,86,0.00,,,0.00,VWS V14.00,2013-03-25 05:26:00,
2013-03-25 01:31:00,32.5,28.8,29.61,SW,233,0.0,0.0,86,0.00,,,0.00,VWS V14.00,2013-03-25 05:31:00,
2013-03-25 01:36:00,32.5,28.8,29.61,SW,233,0.0,0.0,86,0.00,,,0.00,VWS V14.00,2013-03-25 05:36:00,
2013-03-25 01:41:00,32.4,28.6,29.61,SW,233,0.0,0.0,86,0.00,,,0.00,VWS V14.00,2013-03-25 05:41:00,
2013-03-25 01:46:00,32.4,28.6,29.61,SW,233,0.0,0.0,86,0.00,,,0.00,VWS V14.00,2013-03-25 05:46:00,
2013-03-25 01:51:00,32.5,28.8,29.64,SW,233,0.0,0.0,86,0.00,,,0.00,VWS V14.00,2013-03-25 05:51:00,
2013-03-25 01:56:00,32.5,28.8,29.64,SW,233,0.0,0.0,86,0.00,,,0.00,VWS V14.00,2013-03-25 05:56:00,
2013-03-25 02:01:00,32.5,28.8,29.64,SW,233,0.0,0.0,86,0.00,,,0.00,VWS V14.00,2013-03-25 06:01:00,
2013-03-25 02:06:00,32.5,28.8,29.61,SW,233,0.0,0.0,86,0.00,,,0.00,VWS V14.00,2013-03-25 06:06:00,
2013-03-25 02:11:00,32.4,28.6,29.61,SW,233,0.0,0.0,86,0.00,,,0.00,VWS V14.00,2013-03-25 06:11:00,
2013-03-25 02:16:00,32.4,28.6,29.61,SW,233,0.0,0.0,86,0.00,,,0.00,VWS V14.00,2013-03-25 06:16:00,
2013-03-25 02:21:00,32.2,28.5,29.61,SW,233,0.0,0.0,86,0.00,,,0.00,VWS V14.00,2013-03-25 06:21:00,
2013-03-25 02:26:00,32.2,28.5,29.61,SW,233,0.0,0.0,86,0.00,,,0.00,VWS V14.00,2013-03-25 06:26:00,
2013-03-25 02:31:00,32.2,28.5,29.61,SW,233,0.0,0.0,86,0.00,,,0.00,VWS V14.00,2013-03-25 06:31:00,
2013-03-25 02:36:00,32.2,28.5,29.61,SW,233,0.0,0.0,86,0.00,,,0.00,VWS V14.00,2013-03-25 06:36:00,
2013-03-25 02:41:00,32.2,28.5,29.61,SW,233,0.0,0.0,86,0.00,,,0.00,VWS V14.00,2013-03-25 06:41:00,
2013-03-25 02:47:00,32.2,28.5,29.61,SW,233,0.0,0.0,86,0.00,,,0.00,VWS V14.00,2013-03-25 06:47:00,
2013-03-25 02:52:00,32.2,28.5,29.58,SW,234,0.0,0.0,86,0.00,,,0.00,VWS V14.00,2013-03-25 06:52:00,
2013-03-25 02:57:00,32.2,28.5,29.58,SW,233,0.0,0.0,86,0.00,,,0.00,VWS V14.00,2013-03-25 06:57:00,
2013-03-25 03:02:00,32.2,28.5,29.58,SW,231,0.0,0.0,86,0.00,,,0.00,VWS V14.00,2013-03-25 07:02:00,
2013-03-25 03:07:00,32.4,28.6,29.61,SW,233,0.0,0.0,86,0.00,,,0.00,VWS V14.00,2013-03-25 07:07:00,
2013-03-25 03:12:00,32.4,28.6,29.61,SW,233,0.0,0.0,86,0.00,,,0.00,VWS V14.00,2013-03-25 07:12:00,
2013-03-25 03:17:00,32.4,28.6,29.61,SW,233,0.0,0.0,86,0.00,,,0.00,VWS V14.00,2013-03-25 07:17:00,
2013-03-25 03:22:00,32.4,28.6,29.61,SW,233,0.0,0.0,86,0.00,,,0.00,VWS V14.00,2013-03-25 07:22:00,
2013-03-25 03:27:00,32.4,28.6,29.61,SW,233,0.0,0.0,86,0.00,,,0.00,VWS V14.00,2013-03-25 07:27:00,
2013-03-25 03:32:00,32.4,28.6,29.61,SW,233,0.0,0.0,86,0.00,,,0.00,VWS V14.00,2013-03-25 07:32:00,
2013-03-25 03:37:00,32.4,28.6,29.61,SW,233,0.0,0.0,86,0.00,,,0.00,VWS V14.00,2013-03-25 07:37:00,
2013-03-25 03:42:00,32.4,28.6,29.61,SW,233,0.0,0.0,86,0.00,,,0.00,VWS V14.00,2013-03-25 07:42:00,
2013-03-25 03:47:00,32.4,28.6,29.61,SW,233,0.0,0.0,86,0.00,,,0.00,VWS V14.00,2013-03-25 07:47:00,
2013-03-25 03:52:00,32.4,28.6,29.61,SW,234,0.0,0.0,86,0.00,,,0.00,VWS V14.00,2013-03-25 07:52:00,
2013-03-25 03:57:00,32.4,28.6,29.61,SW,233,0.0,0.0,86,0.00,,,0.00,VWS V14.00,2013-03-25 07:57:00,
2013-03-25 04:02:00,32.2,28.2,29.61,SW,233,0.0,0.0,85,0.00,,,0.00,VWS V14.00,2013-03-25 08:02:00,
2013-03-25 04:08:00,32.4,28.6,29.61,SW,233,0.0,0.0,86,0.00,,,0.00,VWS V14.00,2013-03-25 08:08:00,
2013-03-25 04:13:00,32.2,28.5,29.61,SW,233,0.0,0.0,86,0.00,,,0.00,VWS V14.00,2013-03-25 08:13:00,
2013-03-25 04:18:00,32.2,28.5,29.61,SW,233,0.0,0.0,86,0.00,,,0.00,VWS V14.00,2013-03-25 08:18:00,
2013-03-25 04:23:00,32.2,28.2,29.61,SW,233,0.0,0.0,85,0.00,,,0.00,VWS V14.00,2013-03-25 08:23:00,
2013-03-25 04:28:00,32.2,28.2,29.61,SW,233,0.0,0.0,85,0.00,,,0.00,VWS V14.00,2013-03-25 08:28:00,
2013-03-25 04:33:00,32.2,28.2,29.61,SW,233,0.0,0.0,85,0.00,,,0.00,VWS V14.00,2013-03-25 08:33:00,
2013-03-25 04:38:00,32.2,28.2,29.61,SW,233,0.0,0.0,85,0.00,,,0.00,VWS V14.00,2013-03-25 08:38:00,
2013-03-25 04:43:00,32.2,28.2,29.61,SW,233,0.0,0.0,85,0.00,,,0.00,VWS V14.00,2013-03-25 08:43:00,
2013-03-25 04:48:00,32.2,28.2,29.61,SW,233,0.0,0.0,85,0.00,,,0.00,VWS V14.00,2013-03-25 08:48:00,
2013-03-25 04:53:00,32.2,28.2,29.58,SW,233,0.0,0.0,85,0.00,,,0.00,VWS V14.00,2013-03-25 08:53:00,
2013-03-25 04:58:00,32.2,28.2,29.58,SW,233,0.0,0.0,85,0.00,,,0.00,VWS V14.00,2013-03-25 08:58:00,
2013-03-25 05:03:00,32.2,28.2,29.58,SW,233,0.0,0.0,85,0.00,,,0.00,VWS V14.00,2013-03-25 09:03:00,
2013-03-25 05:08:00,32.2,28.2,29.58,SW,233,0.0,0.0,85,0.00,,,0.00,VWS V14.00,2013-03-25 09:08:00,
2013-03-25 05:13:00,32.2,28.2,29.58,SW,233,0.0,0.0,85,0.00,,,0.00,VWS V14.00,2013-03-25 09:13:00,
2013-03-25 05:18:00,32.2,28.2,29.58,SW,233,0.0,0.0,85,0.00,,,0.00,VWS V14.00,2013-03-25 09:18:00,
2013-03-25 05:23:00,32.2,28.2,29.58,SW,233,0.0,0.0,85,0.00,,,0.00,VWS V14.00,2013-03-25 09:23:00,
2013-03-25 05:28:00,32.2,28.2,29.58,SW,233,0.0,0.0,85,0.00,,,0.00,VWS V14.00,2013-03-25 09:28:00,
2013-03-25 05:33:00,32.2,28.2,29.58,SW,233,0.0,0.0,85,0.00,,,0.00,VWS V14.00,2013-03-25 09:33:00,
2013-03-25 05:38:00,32.2,28.2,29.58,SW,233,0.0,0.0,85,0.00,,,0.00,VWS V14.00,2013-03-25 09:38:00,
2013-03-25 05:43:00,32.2,28.2,29.58,SW,233,0.0,0.0,85,0.00,,,0.00,VWS V14.00,2013-03-25 09:43:00,
2013-03-25 05:48:00,32.2,28.2,29.58,SW,233,0.0,0.0,85,0.00,,,0.00,VWS V14.00,2013-03-25 09:48:00,
2013-03-25 05:53:00,32.2,28.2,29.58,SW,233,0.0,0.0,85,0.00,,,0.00,VWS V14.00,2013-03-25 09:53:00,
2013-03-25 05:58:00,32.2,28.2,29.58,SW,233,0.0,0.0,85,0.00,,,0.00,VWS V14.00,2013-03-25 09:58:00,
2013-03-25 06:03:00,32.2,28.2,29.58,SW,233,0.0,0.0,85,0.00,,,0.00,VWS V14.00,2013-03-25 10:03:00,
2013-03-25 06:08:00,32.2,28.2,29.58,SW,233,0.0,0.0,85,0.00,,,0.00,VWS V14.00,2013-03-25 10:08:00,
2013-03-25 06:13:00,32.0,28.0,29.58,SW,233,0.0,0.0,85,0.00,,,0.00,VWS V14.00,2013-03-25 10:13:00,
2013-03-25 06:18:00,31.8,27.8,29.58,SW,233,0.0,0.0,85,0.00,,,0.00,VWS V14.00,2013-03-25 10:18:00,
2013-03-25 06:23:00,31.8,27.8,29.58,SW,233,0.0,0.0,85,0.00,,,0.00,VWS V14.00,2013-03-25 10:23:00,
2013-03-25 06:28:00,32.0,28.0,29.58,SW,233,0.0,0.0,85,0.00,,,0.00,VWS V14.00,2013-03-25 10:28:00,
2013-03-25 06:33:00,32.0,28.0,29.58,SW,233,0.0,0.0,85,0.00,,,0.00,VWS V14.00,2013-03-25 10:33:00,
2013-03-25 06:38:00,32.0,28.0,29.58,SW,233,0.0,0.0,85,0.00,,,0.00,VWS V14.00,2013-03-25 10:38:00,
2013-03-25 06:43:00,32.2,28.2,29.58,SW,233,0.0,0.0,85,0.00,,,0.00,VWS V14.00,2013-03-25 10:43:00,
2013-03-25 06:49:00,32.2,28.2,29.58,SW,233,0.0,0.0,85,0.00,,,0.00,VWS V14.00,2013-03-25 10:49:00,
2013-03-25 06:54:00,32.2,28.2,29.58,SW,233,0.0,0.0,85,0.00,,,0.00,VWS V14.00,2013-03-25 10:54:00,
2013-03-25 06:59:00,32.2,28.2,29.58,SW,233,0.0,0.0,85,0.00,,,0.00,VWS V14.00,2013-03-25 10:59:00,
2013-03-25 07:04:00,32.2,28.2,29.58,SW,233,0.0,0.0,85,0.00,,,0.00,VWS V14.00,2013-03-25 11:04:00,
2013-03-25 07:09:00,32.2,28.2,29.58,SW,233,0.0,0.0,85,0.00,,,0.00,VWS V14.00,2013-03-25 11:09:00,
2013-03-25 07:14:00,32.2,28.2,29.58,SW,233,0.0,0.0,85,0.00,,,0.00,VWS V14.00,2013-03-25 11:14:00,
2013-03-25 07:19:00,32.2,28.2,29.58,SW,233,0.0,0.0,85,0.00,,,0.00,VWS V14.00,2013-03-25 11:19:00,
2013-03-25 07:24:00,32.2,28.2,29.58,SW,233,0.0,0.0,85,0.00,,,0.00,VWS V14.00,2013-03-25 11:24:00,
2013-03-25 07:29:00,32.2,28.2,29.58,SW,233,0.0,0.0,85,0.00,,,0.00,VWS V14.00,2013-03-25 11:29:00,
2013-03-25 07:34:00,32.4,28.4,29.58,SW,233,0.0,0.0,85,0.00,,,0.00,VWS V14.00,2013-03-25 11:34:00,
2013-03-25 07:39:00,32.4,28.4,29.58,SW,233,0.0,0.0,85,0.00,,,0.00,VWS V14.00,2013-03-25 11:39:00,
2013-03-25 07:44:00,32.5,28.5,29.58,SW,233,0.0,0.0,85,0.00,,,0.00,VWS V14.00,2013-03-25 11:44:00,
2013-03-25 07:49:00,32.5,28.5,29.58,SW,233,0.0,0.0,85,0.00,,,0.00,VWS V14.00,2013-03-25 11:49:00,
2013-03-25 07:54:00,32.5,28.5,29.58,SW,233,0.0,0.0,85,0.00,,,0.00,VWS V14.00,2013-03-25 11:54:00,
2013-03-25 07:59:00,32.5,28.5,29.58,SW,233,0.0,0.0,85,0.00,,,0.00,VWS V14.00,2013-03-25 11:59:00,
2013-03-25 08:04:00,32.5,28.5,29.58,SW,233,0.0,0.0,85,0.00,,,0.00,VWS V14.00,2013-03-25 12:04:00,
2013-03-25 08:09:00,32.5,28.5,29.58,SW,233,0.0,0.0,85,0.00,,,0.00,VWS V14.00,2013-03-25 12:09:00,
2013-03-25 08:14:00,32.7,28.7,29.58,SW,233,0.0,0.0,85,0.00,,,0.00,VWS V14.00,2013-03-25 12:14:00,
2013-03-25 08:19:00,32.7,28.7,29.58,SW,233,0.0,0.0,85,0.00,,,0.00,VWS V14.00,2013-03-25 12:19:00,
2013-03-25 08:24:00,32.7,28.7,29.58,SW,233,0.0,0.0,85,0.00,,,0.00,VWS V14.00,2013-03-25 12:24:00,
2013-03-25 08:29:00,33.1,29.1,29.58,SW,233,0.0,0.0,85,0.00,,,0.00,VWS V14.00,2013-03-25 12:29:00,
2013-03-25 08:34:00,33.1,29.1,29.58,SW,233,0.0,0.0,85,0.00,,,0.00,VWS V14.00,2013-03-25 12:34:00,
2013-03-25 08:39:00,33.3,29.2,29.58,SW,233,0.0,0.0,85,0.00,,,0.00,VWS V14.00,2013-03-25 12:39:00,
2013-03-25 08:44:00,33.3,29.2,29.58,SW,233,0.0,0.0,85,0.00,,,0.00,VWS V14.00,2013-03-25 12:44:00,
2013-03-25 08:49:00,33.1,29.1,29.58,SW,233,0.0,0.0,85,0.00,,,0.00,VWS V14.00,2013-03-25 12:49:00,
2013-03-25 08:54:00,33.1,29.1,29.58,SW,233,0.0,0.0,85,0.00,,,0.00,VWS V14.00,2013-03-25 12:54:00,
2013-03-25 08:59:00,33.1,29.1,29.58,SW,233,0.0,0.0,85,0.00,,,0.00,VWS V14.00,2013-03-25 12:59:00,
2013-03-25 09:04:00,33.4,29.4,29.58,SW,233,0.0,0.0,85,0.00,,,0.00,VWS V14.00,2013-03-25 13:04:00,
2013-03-25 09:09:00,33.8,29.8,29.58,NNW,342,0.0,0.0,85,0.00,,,0.00,VWS V14.00,2013-03-25 13:09:00,
2013-03-25 09:14:00,34.0,30.0,29.58,NNE,16,0.0,0.0,85,0.00,,,0.00,VWS V14.00,2013-03-25 13:14:00,
2013-03-25 09:19:00,34.0,30.0,29.58,NNE,16,0.0,0.0,85,0.00,,,0.00,VWS V14.00,2013-03-25 13:19:00,
2013-03-25 09:24:00,34.0,30.0,29.58,NNE,16,0.0,0.0,85,0.00,,,0.00,VWS V14.00,2013-03-25 13:24:00,
2013-03-25 09:29:00,34.3,30.3,29.58,North,8,0.0,0.0,85,0.00,,,0.00,VWS V14.00,2013-03-25 13:29:00,
2013-03-25 09:35:00,34.3,30.3,29.58,North,9,0.0,0.0,85,0.00,,,0.00,VWS V14.00,2013-03-25 13:35:00,
2013-03-25 09:40:00,34.5,30.5,29.58,SSE,150,0.0,0.0,85,0.00,,,0.00,VWS V14.00,2013-03-25 13:40:00,
2013-03-25 09:45:00,34.7,30.7,29.58,NNE,17,0.0,0.0,85,0.00,,,0.00,VWS V14.00,2013-03-25 13:45:00,
2013-03-25 09:50:00,34.9,30.8,29.58,SE,139,0.0,0.0,85,0.00,,,0.00,VWS V14.00,2013-03-25 13:50:00,
2013-03-25 09:55:00,34.9,30.8,29.58,NNE,30,0.0,0.0,85,0.00,,,0.00,VWS V14.00,2013-03-25 13:55:00,
2013-03-25 10:00:00,35.2,31.2,29.58,NE,46,4.0,4.0,85,0.00,,,0.00,VWS V14.00,2013-03-25 14:00:00,
2013-03-25 10:05:00,35.4,31.4,29.58,East,97,3.6,3.6,85,0.00,,,0.00,VWS V14.00,2013-03-25 14:05:00,
2013-03-25 10:10:00,35.6,31.5,29.58,South,174,0.0,3.1,85,0.04,,,0.04,VWS V14.00,2013-03-25 14:10:00,
2013-03-25 10:15:00,35.8,31.4,29.58,North,9,0.0,0.0,84,0.04,,,0.04,VWS V14.00,2013-03-25 14:15:00,
2013-03-25 10:20:00,36.1,31.8,29.58,ENE,78,0.0,3.1,84,0.04,,,0.04,VWS V14.00,2013-03-25 14:20:00,
2013-03-25 10:25:00,36.5,32.1,29.58,East,89,0.0,2.7,84,0.04,,,0.04,VWS V14.00,2013-03-25 14:25:00,
2013-03-25 10:30:00,37.0,32.7,29.58,East,96,2.7,2.7,84,0.04,,,0.04,VWS V14.00,2013-03-25 14:30:00,
2013-03-25 10:35:00,37.2,32.5,29.58,ESE,120,3.1,3.6,83,0.04,,,0.04,VWS V14.00,2013-03-25 14:35:00,
2013-03-25 10:40:00,37.8,32.8,29.58,NE,35,3.1,3.1,82,0.04,,,0.04,VWS V14.00,2013-03-25 14:40:00,
2013-03-25 10:45:00,38.5,33.2,29.58,ESE,105,0.0,0.0,81,0.04,,,0.04,VWS V14.00,2013-03-25 14:45:00,
2013-03-25 10:50:00,39.2,33.6,29.58,ESE,118,0.0,0.0,80,0.12,,,0.12,VWS V14.00,2013-03-25 14:50:00,
2013-03-25 10:55:00,39.6,33.3,29.58,East,84,3.1,5.4,78,0.12,,,0.12,VWS V14.00,2013-03-25 14:55:00,
2013-03-25 11:00:00,39.7,32.5,29.58,ESE,111,4.9,4.9,75,0.12,,,0.12,VWS V14.00,2013-03-25 15:00:00,
2013-03-25 11:05:00,39.9,30.9,29.58,SE,129,4.0,5.4,70,0.16,,,0.16,VWS V14.00,2013-03-25 15:05:00,
2013-03-25 11:10:00,39.9,29.1,29.58,SE,129,3.1,3.6,65,0.12,,,0.16,VWS V14.00,2013-03-25 15:10:00,
2013-03-25 11:15:00,39.4,26.3,29.58,ESE,116,4.9,5.4,59,0.12,,,0.16,VWS V14.00,2013-03-25 15:15:00,
2013-03-25 11:20:00,39.2,24.8,29.58,ESE,119,3.6,5.4,56,0.16,,,0.20,VWS V14.00,2013-03-25 15:20:00,
2013-03-25 11:25:00,39.4,25.0,29.58,ESE,113,2.7,3.6,56,0.16,,,0.20,VWS V14.00,2013-03-25 15:25:00,
2013-03-25 11:30:00,40.5,27.3,29.58,ESE,107,2.7,4.0,59,0.16,,,0.20,VWS V14.00,2013-03-25 15:30:00,
2013-03-25 11:35:00,40.5,23.3,29.58,ESE,115,2.7,3.6,50,0.16,,,0.20,VWS V14.00,2013-03-25 15:35:00,
2013-03-25 11:40:00,40.5,22.8,29.58,SE,124,3.1,3.1,49,0.16,,,0.20,VWS V14.00,2013-03-25 15:40:00,
2013-03-25 11:45:00,39.9,20.3,29.58,SE,141,4.0,4.9,45,0.16,,,0.20,VWS V14.00,2013-03-25 15:45:00,
2013-03-25 11:50:00,39.7,20.7,29.58,ESE,115,5.4,5.4,46,0.12,,,0.24,VWS V14.00,2013-03-25 15:50:00,
2013-03-25 11:55:00,40.5,19.7,29.58,NE,45,4.0,6.7,43,0.12,,,0.24,VWS V14.00,2013-03-25 15:55:00,
2013-03-25 12:00:00,41.4,18.9,29.58,ESE,115,3.6,6.3,40,0.12,,,0.24,VWS V14.00,2013-03-25 16:00:00,
2013-03-25 12:05:00,40.8,18.4,29.58,ENE,71,3.6,11.0,40,0.08,,,0.24,VWS V14.00,2013-03-25 16:05:00,
2013-03-25 12:10:00,41.0,18.5,29.58,SE,144,4.0,8.3,40,0.12,,,0.28,VWS V14.00,2013-03-25 16:10:00,
2013-03-25 12:15:00,41.2,17.5,29.58,SSE,167,5.4,5.8,38,0.12,,,0.28,VWS V14.00,2013-03-25 16:15:00,
2013-03-25 12:20:00,41.2,17.5,29.58,East,84,3.1,4.9,38,0.12,,,0.28,VWS V14.00,2013-03-25 16:20:00,
2013-03-25 12:25:00,40.8,15.3,29.58,NE,43,4.0,10.1,35,0.08,,,0.28,VWS V14.00,2013-03-25 16:25:00,
2013-03-25 12:30:00,41.2,17.5,29.58,East,83,2.7,3.1,38,0.08,,,0.28,VWS V14.00,2013-03-25 16:30:00,
2013-03-25 12:36:00,41.2,17.5,29.58,NE,48,3.1,3.6,38,0.08,,,0.28,VWS V14.00,2013-03-25 16:36:00,
2013-03-25 12:41:00,40.6,17.6,29.58,SE,124,4.0,10.5,39,0.08,,,0.28,VWS V14.00,2013-03-25 16:41:00,
2013-03-25 12:46:00,40.6,15.8,29.58,NNE,31,5.8,5.8,36,0.08,,,0.28,VWS V14.00,2013-03-25 16:46:00,
2013-03-25 12:51:00,42.1,16.4,29.58,NW,307,4.0,4.0,35,0.04,,,0.28,VWS V14.00,2013-03-25 16:51:00,
2013-03-25 12:56:00,43.5,14.9,29.58,ESE,116,3.6,4.0,31,0.04,,,0.28,VWS V14.00,2013-03-25 16:56:00,
2013-03-25 13:01:00,43.5,14.2,29.58,SE,137,4.9,7.6,30,0.04,,,0.28,VWS V14.00,2013-03-25 17:01:00,
2013-03-25 13:06:00,42.4,15.4,29.55,ESE,122,3.6,3.6,33,0.04,,,0.28,VWS V14.00,2013-03-25 17:06:00,
2013-03-25 13:11:00,42.1,14.4,29.55,ESE,116,3.1,6.3,32,0.00,,,0.28,VWS V14.00,2013-03-25 17:11:00,
2013-03-25 13:16:00,42.4,17.4,29.55,SE,128,3.6,3.6,36,0.00,,,0.28,VWS V14.00,2013-03-25 17:16:00,
2013-03-25 13:21:00,42.1,15.1,29.55,NE,45,0.0,6.3,33,0.00,,,0.28,VWS V14.00,2013-03-25 17:21:00,
2013-03-25 13:26:00,41.5,15.3,29.55,ENE,75,2.7,4.9,34,0.00,,,0.28,VWS V14.00,2013-03-25 17:26:00,
2013-03-25 13:31:00,41.5,15.9,29.55,SE,135,4.9,4.9,35,0.00,,,0.28,VWS V14.00,2013-03-25 17:31:00,
2013-03-25 13:37:00,43.3,16.2,29.58,ESE,102,5.8,5.8,33,0.00,,,0.28,VWS V14.00,2013-03-25 17:37:00,
2013-03-25 13:42:00,43.5,16.3,29.58,ESE,118,4.0,4.9,33,0.00,,,0.28,VWS V14.00,2013-03-25 17:42:00,
2013-03-25 13:47:00,44.6,16.6,29.58,NNE,28,5.4,5.4,32,0.00,,,0.28,VWS V14.00,2013-03-25 17:47:00,
2013-03-25 13:52:00,45.9,17.0,29.55,NNE,32,2.2,3.6,31,0.00,,,0.28,VWS V14.00,2013-03-25 17:52:00,
2013-03-25 13:57:00,46.6,16.0,29.55,SW,216,4.9,8.1,29,0.00,,,0.28,VWS V14.00,2013-03-25 17:57:00,
2013-03-25 14:02:00,45.9,14.6,29.55,ENE,76,2.7,3.6,28,0.00,,,0.28,VWS V14.00,2013-03-25 18:02:00,
2013-03-25 14:07:00,45.3,14.9,29.55,East,82,4.0,4.0,29,0.00,,,0.28,VWS V14.00,2013-03-25 18:07:00,
2013-03-25 14:12:00,45.9,14.6,29.55,ENE,67,4.0,6.3,28,0.00,,,0.28,VWS V14.00,2013-03-25 18:12:00,
2013-03-25 14:18:00,45.1,14.0,29.55,East,81,8.1,8.1,28,0.00,,,0.28,VWS V14.00,2013-03-25 18:18:00,
2013-03-25 14:23:00,44.2,14.0,29.55,NE,45,3.6,5.4,29,0.00,,,0.28,VWS V14.00,2013-03-25 18:23:00,
2013-03-25 14:28:00,44.2,14.0,29.55,East,99,4.9,7.2,29,0.00,,,0.28,VWS V14.00,2013-03-25 18:28:00,
2013-03-25 14:33:00,44.4,14.2,29.55,South,169,5.8,6.3,29,0.00,,,0.28,VWS V14.00,2013-03-25 18:33:00,
2013-03-25 14:38:00,44.1,13.1,29.52,SE,135,5.4,5.4,28,0.00,,,0.28,VWS V14.00,2013-03-25 18:38:00,
2013-03-25 14:43:00,43.3,13.2,29.52,East,91,5.8,8.1,29,0.00,,,0.28,VWS V14.00,2013-03-25 18:43:00,
2013-03-25 14:48:00,43.0,12.9,29.52,ENE,63,7.2,8.3,29,0.00,,,0.28,VWS V14.00,2013-03-25 18:48:00,
2013-03-25 14:53:00,42.4,12.4,29.55,ESE,111,3.6,3.6,29,0.00,,,0.28,VWS V14.00,2013-03-25 18:53:00,
2013-03-25 14:58:00,42.1,12.9,29.55,SE,144,3.6,5.4,30,0.00,,,0.28,VWS V14.00,2013-03-25 18:58:00,
2013-03-25 15:03:00,41.7,12.6,29.55,SSW,192,4.0,6.3,30,0.00,,,0.28,VWS V14.00,2013-03-25 19:03:00,
2013-03-25 15:08:00,41.4,13.0,29.55,ENE,75,5.4,5.8,31,0.00,,,0.28,VWS V14.00,2013-03-25 19:08:00,
2013-03-25 15:13:00,41.2,13.6,29.55,SE,132,3.6,3.6,32,0.00,,,0.28,VWS V14.00,2013-03-25 19:13:00,
2013-03-25 15:18:00,41.9,13.5,29.55,ESE,120,8.1,8.1,31,0.00,,,0.28,VWS V14.00,2013-03-25 19:18:00,
2013-03-25 15:23:00,43.5,13.4,29.58,SE,131,3.1,4.0,29,0.00,,,0.28,VWS V14.00,2013-03-25 19:23:00,
2013-03-25 15:28:00,44.8,14.5,29.58,South,173,3.1,8.3,29,0.00,,,0.28,VWS V14.00,2013-03-25 19:28:00,
2013-03-25 15:33:00,45.5,15.1,29.55,SE,141,2.7,6.3,29,0.00,,,0.28,VWS V14.00,2013-03-25 19:33:00,
2013-03-25 15:38:00,46.2,15.7,29.55,ESE,110,3.6,3.6,29,0.00,,,0.28,VWS V14.00,2013-03-25 19:38:00,
2013-03-25 15:43:00,46.2,14.9,29.55,SSE,163,7.2,7.2,28,0.00,,,0.28,VWS V14.00,2013-03-25 19:43:00,
2013-03-25 15:48:00,46.2,15.7,29.55,SW,223,7.6,7.6,29,0.00,,,0.28,VWS V14.00,2013-03-25 19:48:00,
2013-03-25 15:53:00,46.2,14.9,29.55,SE,130,4.0,5.4,28,0.00,,,0.28,VWS V14.00,2013-03-25 19:53:00,
2013-03-25 15:58:00,46.6,14.4,29.55,ESE,118,4.0,10.1,27,0.00,,,0.28,VWS V14.00,2013-03-25 19:58:00,
2013-03-25 16:03:00,46.2,14.1,29.55,ENE,78,6.3,6.3,27,0.00,,,0.28,VWS V14.00,2013-03-25 20:03:00,
2013-03-25 16:08:00,45.3,14.1,29.55,ESE,118,8.1,8.1,28,0.00,,,0.28,VWS V14.00,2013-03-25 20:08:00,
2013-03-25 16:13:00,44.1,13.1,29.55,SE,140,4.9,7.2,28,0.00,,,0.28,VWS V14.00,2013-03-25 20:13:00,
2013-03-25 16:18:00,43.0,12.1,29.55,East,101,2.7,4.0,28,0.00,,,0.28,VWS V14.00,2013-03-25 20:18:00,
2013-03-25 16:23:00,42.4,12.4,29.55,East,79,3.1,3.1,29,0.00,,,0.28,VWS V14.00,2013-03-25 20:23:00,
2013-03-25 16:28:00,42.3,12.3,29.55,SE,127,4.0,4.0,29,0.00,,,0.28,VWS V14.00,2013-03-25 20:28:00,
2013-03-25 16:33:00,41.9,11.2,29.58,NE,44,5.8,7.6,28,0.00,,,0.28,VWS V14.00,2013-03-25 20:33:00,
2013-03-25 16:39:00,42.3,12.3,29.58,East,90,5.8,9.2,29,0.00,,,0.28,VWS V14.00,2013-03-25 20:39:00,
2013-03-25 16:44:00,42.4,12.4,29.58,East,84,3.6,4.0,29,0.00,,,0.28,VWS V14.00,2013-03-25 20:44:00,
2013-03-25 16:49:00,42.4,12.4,29.58,East,89,3.1,5.4,29,0.00,,,0.28,VWS V14.00,2013-03-25 20:49:00,
2013-03-25 16:54:00,42.1,12.1,29.58,SSE,148,4.0,4.9,29,0.00,,,0.28,VWS V14.00,2013-03-25 20:54:00,
2013-03-25 16:59:00,41.5,11.7,29.58,SSE,153,0.0,5.4,29,0.00,,,0.28,VWS V14.00,2013-03-25 20:59:00,
2013-03-25 17:04:00,41.4,11.5,29.61,ENE,70,4.0,5.4,29,0.00,,,0.28,VWS V14.00,2013-03-25 21:04:00,
2013-03-25 17:09:00,41.4,12.3,29.61,East,89,7.6,7.6,30,0.00,,,0.28,VWS V14.00,2013-03-25 21:09:00,
2013-03-25 17:14:00,41.5,11.7,29.61,East,100,4.0,7.6,29,0.00,,,0.28,VWS V14.00,2013-03-25 21:14:00,
2013-03-25 17:19:00,41.7,11.8,29.61,ENE,68,5.4,6.3,29,0.00,,,0.28,VWS V14.00,2013-03-25 21:19:00,
2013-03-25 17:24:00,41.5,11.7,29.61,ESE,104,3.1,3.6,29,0.00,,,0.28,VWS V14.00,2013-03-25 21:24:00,
2013-03-25 17:29:00,41.5,11.7,29.61,SE,128,4.0,5.4,29,0.00,,,0.28,VWS V14.00,2013-03-25 21:29:00,
2013-03-25 17:34:00,41.7,11.8,29.61,NNE,25,4.9,4.9,29,0.00,,,0.28,VWS V14.00,2013-03-25 21:34:00,
2013-03-25 17:39:00,41.5,11.7,29.61,ENE,68,3.1,4.0,29,0.00,,,0.28,VWS V14.00,2013-03-25 21:39:00,
2013-03-25 17:44:00,41.4,11.5,29.61,SE,141,3.1,4.9,29,0.00,,,0.28,VWS V14.00,2013-03-25 21:44:00,
2013-03-25 17:49:00,41.2,11.4,29.61,SE,145,2.7,3.1,29,0.00,,,0.28,VWS V14.00,2013-03-25 21:49:00,
2013-03-25 17:54:00,41.0,11.2,29.61,SSE,167,2.7,2.7,29,0.00,,,0.28,VWS V14.00,2013-03-25 21:54:00,
2013-03-25 17:59:00,40.8,11.8,29.61,East,82,5.4,5.8,30,0.00,,,0.28,VWS V14.00,2013-03-25 21:59:00,
2013-03-25 18:04:00,40.8,12.5,29.64,ESE,122,4.9,4.9,31,0.00,,,0.28,VWS V14.00,2013-03-25 22:04:00,
2013-03-25 18:09:00,40.6,12.4,29.64,South,171,4.0,4.9,31,0.00,,,0.28,VWS V14.00,2013-03-25 22:09:00,
2013-03-25 18:14:00,40.6,12.4,29.64,West,261,2.7,4.9,31,0.00,,,0.28,VWS V14.00,2013-03-25 22:14:00,
2013-03-25 18:19:00,40.6,12.4,29.64,SSW,199,3.1,5.4,31,0.00,,,0.28,VWS V14.00,2013-03-25 22:19:00,
2013-03-25 18:24:00,40.5,12.9,29.64,SSE,147,2.7,4.9,32,0.00,,,0.28,VWS V14.00,2013-03-25 22:24:00,
2013-03-25 18:29:00,40.1,11.9,29.64,SE,143,2.7,2.7,31,0.00,,,0.28,VWS V14.00,2013-03-25 22:29:00,
2013-03-25 18:35:00,39.9,11.8,29.67,East,93,2.2,3.1,31,0.00,,,0.28,VWS V14.00,2013-03-25 22:35:00,
2013-03-25 18:40:00,39.9,13.2,29.67,ESE,110,0.0,4.0,33,0.00,,,0.28,VWS V14.00,2013-03-25 22:40:00,
2013-03-25 18:45:00,39.7,12.3,29.67,ESE,116,5.4,5.4,32,0.00,,,0.28,VWS V14.00,2013-03-25 22:45:00,
2013-03-25 18:50:00,39.7,11.6,29.67,North,357,3.1,4.0,31,0.00,,,0.28,VWS V14.00,2013-03-25 22:50:00,
2013-03-25 18:55:00,39.7,12.3,29.67,SSE,152,4.0,4.0,32,0.00,,,0.28,VWS V14.00,2013-03-25 22:55:00,
2013-03-25 19:00:00,39.7,11.6,29.67,SE,143,2.7,4.9,31,0.00,,,0.28,VWS V14.00,2013-03-25 23:00:00,
2013-03-25 19:05:00,39.7,12.3,29.67,East,93,3.1,3.6,32,0.00,,,0.28,VWS V14.00,2013-03-25 23:05:00,
2013-03-25 19:10:00,39.6,12.1,29.67,SE,131,2.2,3.1,32,0.00,,,0.28,VWS V14.00,2013-03-25 23:10:00,
2013-03-25 19:15:00,39.2,12.5,29.67,SE,128,2.7,3.1,33,0.00,,,0.28,VWS V14.00,2013-03-25 23:15:00,
2013-03-25 19:20:00,39.0,11.7,29.70,SSE,147,3.1,3.1,32,0.00,,,0.28,VWS V14.00,2013-03-25 23:20:00,
2013-03-25 19:25:00,38.8,10.8,29.70,ESE,114,3.6,3.6,31,0.00,,,0.28,VWS V14.00,2013-03-25 23:25:00,
2013-03-25 19:30:00,39.0,11.0,29.70,SSE,147,2.7,2.7,31,0.00,,,0.28,VWS V14.00,2013-03-25 23:30:00,
2013-03-25 19:35:00,38.8,11.5,29.70,ESE,113,0.0,0.0,32,0.00,,,0.28,VWS V14.00,2013-03-25 23:35:00,
2013-03-25 19:40:00,38.8,12.2,29.70,ESE,107,3.6,3.6,33,0.00,,,0.28,VWS V14.00,2013-03-25 23:40:00,
2013-03-25 19:45:00,38.7,12.7,29.70,East,87,2.7,4.0,34,0.00,,,0.28,VWS V14.00,2013-03-25 23:45:00,
2013-03-25 19:50:00,38.7,12.1,29.70,ESE,108,0.0,0.0,33,0.00,,,0.28,VWS V14.00,2013-03-25 23:50:00,
2013-03-25 19:55:00,38.7,12.7,29.70,ENE,57,3.6,3.6,34,0.00,,,0.28,VWS V14.00,2013-03-25 23:55:00,
2013-03-25 20:00:00,38.7,12.7,29.70,East,83,3.1,4.0,34,0.00,,,0.28,VWS V14.00,2013-03-26 00:00:00,
2013-03-25 20:05:00,38.5,12.6,29.72,SE,125,0.0,3.1,34,0.00,,,0.28,VWS V14.00,2013-03-26 00:05:00,
2013-03-25 20:10:00,38.3,13.1,29.72,SSW,207,2.2,3.1,35,0.00,,,0.28,VWS V14.00,2013-03-26 00:10:00,
2013-03-25 20:15:00,37.9,12.1,29.72,SE,126,2.7,3.1,34,0.00,,,0.28,VWS V14.00,2013-03-26 00:15:00,
2013-03-25 20:20:00,37.9,12.1,29.72,SSE,163,3.6,4.0,34,0.00,,,0.28,VWS V14.00,2013-03-26 00:20:00,
2013-03-25 20:25:00,37.8,11.3,29.72,SE,142,3.1,5.8,33,0.00,,,0.28,VWS V14.00,2013-03-26 00:25:00,
2013-03-25 20:30:00,37.9,12.1,29.72,SE,134,0.0,0.0,34,0.00,,,0.28,VWS V14.00,2013-03-26 00:30:00,
2013-03-25 20:35:00,37.8,11.9,29.75,SSE,163,0.0,0.0,34,0.00,,,0.28,VWS V14.00,2013-03-26 00:35:00,
2013-03-25 20:40:00,37.8,13.2,29.75,SE,128,0.0,2.7,36,0.00,,,0.28,VWS V14.00,2013-03-26 00:40:00,
2013-03-25 20:45:00,37.6,12.4,29.75,SE,139,2.7,3.1,35,0.00,,,0.28,VWS V14.00,2013-03-26 00:45:00,
2013-03-25 20:50:00,37.4,13.5,29.75,ESE,123,2.7,5.8,37,0.00,,,0.28,VWS V14.00,2013-03-26 00:50:00,
2013-03-25 20:55:00,37.4,12.9,29.75,ESE,111,3.6,8.1,36,0.00,,,0.28,VWS V14.00,2013-03-26 00:55:00,
2013-03-25 21:00:00,37.4,12.3,29.75,East,96,3.6,3.6,35,0.00,,,0.28,VWS V14.00,2013-03-26 01:00:00,
2013-03-25 21:05:00,37.2,11.4,29.75,East,97,2.7,3.6,34,0.00,,,0.28,VWS V14.00,2013-03-26 01:05:00,
2013-03-25 21:10:00,37.0,11.3,29.75,East,82,0.0,0.0,34,0.00,,,0.28,VWS V14.00,2013-03-26 01:10:00,
2013-03-25 21:15:00,37.0,13.2,29.75,East,93,0.0,0.0,37,0.00,,,0.28,VWS V14.00,2013-03-26 01:15:00,
2013-03-25 21:20:00,36.9,13.0,29.75,ESE,111,7.2,7.2,37,0.00,,,0.28,VWS V14.00,2013-03-26 01:20:00,
2013-03-25 21:25:00,36.7,12.9,29.75,South,169,2.7,2.7,37,0.00,,,0.28,VWS V14.00,2013-03-26 01:25:00,
2013-03-25 21:30:00,36.7,12.9,29.75,SSE,155,4.0,4.0,37,0.00,,,0.28,VWS V14.00,2013-03-26 01:30:00,
2013-03-25 21:35:00,36.5,12.1,29.75,ESE,116,0.0,3.1,36,0.00,,,0.28,VWS V14.00,2013-03-26 01:35:00,
2013-03-25 21:40:00,36.5,13.9,29.75,ESE,123,0.0,0.0,39,0.00,,,0.28,VWS V14.00,2013-03-26 01:40:00,
2013-03-25 21:45:00,36.3,13.2,29.75,ESE,122,2.2,4.0,38,0.00,,,0.28,VWS V14.00,2013-03-26 01:45:00,
2013-03-25 21:50:00,36.3,13.8,29.78,SSE,159,2.7,2.7,39,0.00,,,0.28,VWS V14.00,2013-03-26 01:50:00,
2013-03-25 21:55:00,36.1,13.6,29.78,ESE,122,2.2,2.7,39,0.00,,,0.28,VWS V14.00,2013-03-26 01:55:00,
2013-03-25 22:00:00,36.3,12.6,29.78,ESE,120,0.0,0.0,37,0.00,,,0.28,VWS V14.00,2013-03-26 02:00:00,
2013-03-25 22:05:00,36.1,12.4,29.78,ESE,120,0.0,0.0,37,0.00,,,0.28,VWS V14.00,2013-03-26 02:05:00,
2013-03-25 22:10:00,36.0,12.2,29.78,ENE,57,0.0,0.0,37,0.00,,,0.28,VWS V14.00,2013-03-26 02:10:00,
2013-03-25 22:15:00,35.8,12.1,29.78,SE,135,0.0,0.0,37,0.00,,,0.28,VWS V14.00,2013-03-26 02:15:00,
2013-03-25 22:20:00,35.6,12.5,29.78,ESE,102,0.0,0.0,38,0.00,,,0.28,VWS V14.00,2013-03-26 02:20:00,
2013-03-25 22:25:00,35.4,13.5,29.78,ESE,110,0.0,0.0,40,0.00,,,0.28,VWS V14.00,2013-03-26 02:25:00,
2013-03-25 22:30:00,35.2,13.4,29.78,SE,139,0.0,0.0,40,0.00,,,0.28,VWS V14.00,2013-03-26 02:30:00,
2013-03-25 22:35:00,35.1,13.2,29.78,ENE,68,3.1,3.1,40,0.00,,,0.28,VWS V14.00,2013-03-26 02:35:00,
2013-03-25 22:41:00,35.1,13.2,29.78,East,101,2.7,3.1,40,0.00,,,0.28,VWS V14.00,2013-03-26 02:41:00,
2013-03-25 22:46:00,35.2,13.4,29.78,SE,127,3.6,3.6,40,0.00,,,0.28,VWS V14.00,2013-03-26 02:46:00,
2013-03-25 22:51:00,35.1,13.2,29.78,SSE,157,3.1,4.0,40,0.00,,,0.28,VWS V14.00,2013-03-26 02:51:00,
2013-03-25 22:56:00,35.1,13.2,29.78,SE,126,4.0,4.0,40,0.00,,,0.28,VWS V14.00,2013-03-26 02:56:00,
2013-03-25 23:01:00,35.1,13.2,29.78,ESE,120,0.0,2.7,40,0.00,,,0.28,VWS V14.00,2013-03-26 03:01:00,
2013-03-25 23:06:00,35.2,13.4,29.78,East,101,3.6,4.9,40,0.00,,,0.28,VWS V14.00,2013-03-26 03:06:00,
2013-03-25 23:11:00,35.4,12.9,29.78,SE,136,2.7,8.3,39,0.00,,,0.28,VWS V14.00,2013-03-26 03:11:00,
2013-03-25 23:16:00,35.4,13.5,29.78,SE,146,4.9,4.9,40,0.00,,,0.28,VWS V14.00,2013-03-26 03:16:00,
2013-03-25 23:21:00,35.4,13.5,29.78,SE,139,3.1,4.0,40,0.00,,,0.28,VWS V14.00,2013-03-26 03:21:00,
2013-03-25 23:26:00,35.6,13.7,29.78,SE,133,2.7,3.1,40,0.00,,,0.28,VWS V14.00,2013-03-26 03:26:00,
2013-03-25 23:32:00,35.6,13.7,29.78,East,84,3.1,3.1,40,0.00,,,0.28,VWS V14.00,2013-03-26 03:32:00,
2013-03-25 23:37:00,35.8,13.3,29.78,East,101,2.7,3.6,39,0.00,,,0.28,VWS V14.00,2013-03-26 03:37:00,
2013-03-25 23:42:00,35.8,13.8,29.78,ESE,105,0.0,0.0,40,0.00,,,0.28,VWS V14.00,2013-03-26 03:42:00,
2013-03-25 23:47:00,35.8,13.3,29.78,SSE,155,3.1,4.0,39,0.00,,,0.28,VWS V14.00,2013-03-26 03:47:00,
2013-03-25 23:52:00,35.8,13.3,29.78,ENE,74,3.1,3.1,39,0.00,,,0.28,VWS V14.00,2013-03-26 03:52:00,
2013-03-25 23:57:00,35.8,13.8,29.78,ESE,102,2.7,3.6,40,0.00,,,0.28,VWS V14.00,2013-03-26 03:57:00,